Location: Владивосток
(43.1151°N, 131.8856°E)
Time: 06:26:47
(UTC+10:00)

CUBEBUG 2 - Pass Details

Date: 12 July 2022
Orbit: 584 x 693 km, 97.7° (Epoch: 07 August)

Event Time Altitude Azimuth Distance (km) Brightness Sun altitude
Rises 03:30:28 0° 23° (NNE) 2,886 ? -18.1°
Reaches altitude 10° 03:32:51 10° 34° (NNE) 1,994 ? -17.9°
Maximum altitude 03:36:42 31° 96° (E) 1,120 ? -17.5°
Enters shadow 03:40:13 12° 156° (SSE) 1,890 ? -17.1°
